Location: LDNL
(36.4545°S, 141.6685°E)
Time: 20:40:08
(UTC+11:00)

ISS - Visible Passes

Search period start: 10 December 2022 00:00
Search period end: 20 December 2022 00:00
Orbit: 414 x 420 km, 51.6° (Epoch: 09 December)

Date Brightness Start Highest point End Pass type
(mag) Time Alt. Az. Time Alt. Az. Time Alt. Az.
10 Dec -0.2 01:21:11 10° SSW 01:21:49 10° SSW 01:22:27 10° S visible
10 Dec -0.4 04:36:22 10° S 04:38:07 13° SSE 04:39:53 10° SE visible
10 Dec -3.2 22:56:47 52° SE 22:56:47 52° SE 22:59:30 10° SE visible
11 Dec -0.4 00:31:27 10° WSW 00:33:18 14° SSW 00:35:10 10° S visible
11 Dec 0.1 03:49:23 10° SSE 03:49:36 10° SSE 03:49:49 10° SSE visible
11 Dec -2.2 05:23:50 10° SW 05:27:07 41° SE 05:30:22 10° ENE visible
11 Dec -3.7 22:04:34 10° NNW 22:07:51 52° NE 22:11:12 10° ESE visible
11 Dec -0.9 23:42:17 10° WSW 23:44:49 19° SSW 23:47:22 10° SSE visible
12 Dec -1.2 04:35:48 10° SSW 04:38:44 26° SSE 04:41:40 10° E visible
12 Dec -2.8 21:16:45 10° NNW 21:19:41 27° NE 21:22:38 10° ESE visible
12 Dec -1.6 22:53:23 10° W 22:56:23 28° SSW 22:59:25 10° SSE visible
13 Dec -0.6 03:47:52 10° SSW 03:50:17 18° SSE 03:52:41 10° ESE visible
13 Dec -3.7 05:23:55 10° SW 05:27:19 62° NW 05:30:41 10° NE visible
13 Dec -2.6 22:04:43 10° WNW 22:07:59 47° SW 22:11:19 10° SE visible
13 Dec 0.0 23:44:37 10° SSW 23:45:27 11° SSW 23:46:18 10° S visible
14 Dec -0.2 03:00:06 10° S 03:01:45 13° SSE 03:03:23 10° SE visible
14 Dec -3.4 04:35:36 10° SW 04:39:02 69° SE 04:42:26 10° NE visible
14 Dec -3.7 21:16:17 10° NW 21:19:39 86° SW 21:23:05 10° SE visible
14 Dec -0.4 22:54:55 10° WSW 22:56:51 14° SSW 22:58:48 10° S visible
15 Dec -2.2 03:47:25 10° SW 03:50:40 38° SE 03:53:53 10° ENE visible
15 Dec -2.3 05:24:43 10° W 05:27:12 19° NW 05:29:41 10° N visible
15 Dec -0.7 22:05:43 10° WSW 22:08:18 20° SSW 22:10:55 10° SSE visible
16 Dec -1.4 02:59:20 10° SSW 03:02:12 24° SSE 03:05:04 10° E visible
16 Dec -3.1 04:35:51 10° WSW 04:39:31 32° NNW 04:42:07 10° NNE visible
16 Dec -1.5 21:16:45 10° W 21:19:47 30° SSW 21:22:51 10° SSE visible
17 Dec -0.8 02:11:19 10° SSW 02:13:39 17° SSE 02:13:44 17° SSE visible
17 Dec -0.2 22:07:43 10° SW 22:08:44 11° SSW 22:09:46 10° S visible
18 Dec -0.5 01:23:30 10° S 01:25:01 12° SSE 01:25:33 12° SSE visible
18 Dec -0.6 21:18:03 10° WSW 21:20:04 15° SSW 21:22:06 10° SSE visible
19 Dec -0.5 02:10:41 10° SSW 02:10:48 11° SSW 02:10:48 11° SSW visible
